Algona, IA

8:49 AM CST on February 23, 2017 (GMT -0600)
Algona Municipal

Weather History for KAXA - December, 2012

Change the Weather History Date:

Saturday, December 22, 2012

  Actual Average Record
Temperature  
Mean Temperature 20 °F -  
Max Temperature 28 °F 24 °F 39 °F (2001)
Min Temperature 12 °F 10 °F -13 °F (2000)
Degree Days  
Heating Degree Days 45    
Moisture  
Dew Point 13 °F    
Average Humidity 79    
Maximum Humidity 93    
Minimum Humidity 68    
Precipitation  
Precipitation 0.00 in - - ()
Sea Level Pressure  
Sea Level Pressure 30.00 in    
Wind  
Wind Speed 11 mph (SSW)    
Max Wind Speed 15 mph    
Max Gust Speed 18 mph    
Visibility 10 miles    
Events Snow    
Averages and records for this station are not official NWS values.
T = Trace of Precipitation, MM = Missing Value Source: NWS Daily Summary

Daily Weather History Graph

Daily Weather History Graph

Search for Another Location

Airport or City:

Trip Planner

Search our weather history database for the weather conditions in past years. The results will help you decide how hot, cold, wet, or windy it might be!

Date:

Astronomy

Dec. 22, 2012 Rise Set
Actual Time 7:46 AM CST 4:45 PM CST
Civil Twilight 7:13 AM CST 5:18 PM CST
Nautical Twilight 6:37 AM CST 5:54 PM CST
Astronomical Twilight 6:03 AM CST 6:28 PM CST
Moon 1:08 PM CST (12/22) 2:27 AM CST (12/22)
Length of Visible Light 10h 04m
Length of Day
8h 59m
Waxing Gibbous, 74% of the Moon is Illuminated
Dec 22
Waxing Gibbous
Dec 28
Full
Jan 4
Last Quarter
Jan 11
New
Jan 18
First Quarter

Hourly Weather History & Observations

Time (CST) Temp. Windchill Dew Point Humidity Pressure Visibility Wind Dir Wind Speed Gust Speed Precip Events Conditions
12:15 AM 12.2 °F -1.0 °F 8.6 °F 85% 30.16 in 10.0 mi South 10.4 mph - N/A   Clear
12:35 AM 12.2 °F -1.0 °F 8.6 °F 85% 30.15 in 10.0 mi South 10.4 mph - N/A   Clear
12:55 AM 12.2 °F -1.0 °F 8.6 °F 85% 30.14 in 10.0 mi South 10.4 mph - N/A   Clear
1:15 AM 14.0 °F 1.2 °F 8.6 °F 79% 30.14 in 10.0 mi South 10.4 mph - N/A Snow Light Snow
1:35 AM 14.0 °F -0.2 °F 8.6 °F 79% 30.14 in 10.0 mi South 12.7 mph - N/A Snow Light Snow
1:55 AM 14.0 °F 1.2 °F 8.6 °F 79% 30.13 in 10.0 mi South 10.4 mph - N/A   Clear
2:15 AM 12.2 °F -0.2 °F 8.6 °F 85% 30.12 in 10.0 mi South 9.2 mph - N/A   Clear
2:35 AM 14.0 °F 0.5 °F 8.6 °F 79% 30.11 in 10.0 mi South 11.5 mph - N/A   Clear
3:15 AM 14.0 °F 2.0 °F 8.6 °F 79% 30.10 in 10.0 mi South 9.2 mph - N/A   Clear
3:35 AM 14.0 °F -0.2 °F 8.6 °F 79% 30.09 in 10.0 mi South 12.7 mph - N/A   Clear
3:55 AM 15.8 °F 2.7 °F 8.6 °F 73% 30.08 in 10.0 mi South 11.5 mph - N/A   Clear
4:15 AM 15.8 °F 1.4 °F 8.6 °F 73% 30.07 in 10.0 mi South 13.8 mph - N/A   Clear
4:35 AM 14.0 °F 0.5 °F 8.6 °F 79% 30.06 in 10.0 mi South 11.5 mph - N/A   Clear
4:55 AM 14.0 °F -0.8 °F 8.6 °F 79% 30.05 in 10.0 mi South 13.8 mph - N/A   Clear
5:15 AM 14.0 °F -0.2 °F 8.6 °F 79% 30.05 in 10.0 mi South 12.7 mph - N/A   Clear
5:35 AM 14.0 °F 0.5 °F 8.6 °F 79% 30.04 in 10.0 mi South 11.5 mph - N/A   Clear
5:55 AM 15.8 °F 2.7 °F 10.4 °F 79% 30.03 in 10.0 mi South 11.5 mph - N/A   Clear
6:15 AM 17.6 °F 5.7 °F 8.6 °F 68% 30.02 in 10.0 mi SSE 10.4 mph - N/A   Clear
6:35 AM 15.8 °F 2.7 °F 8.6 °F 73% 30.01 in 10.0 mi SSE 11.5 mph - N/A   Clear
6:55 AM 15.8 °F 2.7 °F 8.6 °F 73% 30.00 in 10.0 mi SSE 11.5 mph - N/A   Clear
7:15 AM 15.8 °F 2.1 °F 8.6 °F 73% 30.00 in 10.0 mi SSE 12.7 mph - N/A   Clear
7:35 AM 15.8 °F 2.1 °F 10.4 °F 79% 29.99 in 10.0 mi SSE 12.7 mph - N/A   Clear
7:55 AM 15.8 °F 2.1 °F 10.4 °F 79% 29.99 in 10.0 mi SSE 12.7 mph - N/A   Clear
8:15 AM 15.8 °F 2.7 °F 10.4 °F 79% 29.99 in 10.0 mi South 11.5 mph - N/A   Clear
8:35 AM 17.6 °F 3.7 °F 10.4 °F 73% 29.98 in 10.0 mi South 13.8 mph - N/A   Clear
8:55 AM 17.6 °F 3.2 °F 12.2 °F 79% 29.98 in 10.0 mi South 15.0 mph - N/A   Clear
9:15 AM 19.4 °F 6.6 °F 12.2 °F 74% 29.98 in 10.0 mi South 12.7 mph - N/A   Clear
9:35 AM 21.2 °F 8.3 °F 12.2 °F 68% 29.97 in 10.0 mi South 13.8 mph - N/A   Clear
9:55 AM 21.2 °F 8.3 °F 14.0 °F 74% 29.98 in 10.0 mi South 13.8 mph - N/A   Clear
10:15 AM 21.2 °F 8.9 °F 14.0 °F 74% 29.99 in 10.0 mi South 12.7 mph - N/A   Clear
10:35 AM 23.0 °F 13.1 °F 14.0 °F 68% 29.99 in 10.0 mi South 9.2 mph - N/A   Clear
10:55 AM 23.0 °F 12.4 °F 15.8 °F 74% 29.98 in 10.0 mi South 10.4 mph - N/A   Clear
11:15 AM 24.8 °F 16.1 °F 17.6 °F 74% 29.98 in 10.0 mi South 8.1 mph - N/A   Clear
11:35 AM 24.8 °F 14.6 °F 15.8 °F 69% 29.97 in 10.0 mi South 10.4 mph - N/A   Clear
11:55 AM 26.6 °F 16.8 °F 17.6 °F 69% 29.96 in 10.0 mi South 10.4 mph - N/A   Clear
12:15 PM 26.6 °F 16.2 °F 19.4 °F 74% 29.94 in 10.0 mi South 11.5 mph - N/A   Clear
12:35 PM 26.6 °F 16.8 °F 19.4 °F 74% 29.93 in 10.0 mi South 10.4 mph - N/A   Clear
12:55 PM 26.6 °F 18.2 °F 19.4 °F 74% 29.93 in 10.0 mi South 8.1 mph - N/A   Clear
1:15 PM 28.4 °F 20.4 °F 19.4 °F 69% 29.93 in 10.0 mi SSW 8.1 mph - N/A   Clear
1:35 PM 26.6 °F 18.2 °F 19.4 °F 74% 29.93 in - SSW 8.1 mph - N/A   Clear
1:55 PM 28.4 °F 23.3 °F 19.4 °F 69% 29.92 in 10.0 mi WSW 4.6 mph - N/A   Clear
2:15 PM 28.4 °F 23.3 °F 21.2 °F 74% 29.93 in 9.0 mi West 4.6 mph - N/A   Clear
2:35 PM 28.4 °F 22.2 °F 21.2 °F 74% 29.92 in 10.0 mi NNW 5.8 mph - N/A   Clear
2:55 PM 28.4 °F 21.2 °F 21.2 °F 74% 29.91 in 10.0 mi NNW 6.9 mph - N/A   Clear
3:15 PM 28.4 °F 20.4 °F 21.2 °F 74% 29.93 in 10.0 mi NNW 8.1 mph - N/A   Clear
3:35 PM 26.6 °F 20.0 °F 21.2 °F 80% 29.92 in 10.0 mi NNW 5.8 mph - N/A   Clear
3:55 PM 26.6 °F 18.2 °F 21.2 °F 80% 29.93 in 10.0 mi North 8.1 mph - N/A   Clear
4:15 PM 26.6 °F 18.2 °F 19.4 °F 74% 29.93 in 9.0 mi North 8.1 mph - N/A   Clear
4:35 PM 24.8 °F 14.0 °F 19.4 °F 80% 29.94 in 9.0 mi North 11.5 mph - N/A   Clear
4:55 PM 23.0 °F 13.1 °F 17.6 °F 80% 29.94 in 9.0 mi North 9.2 mph - N/A   Clear
5:15 PM 21.2 °F 13.6 °F 17.6 °F 86% 29.94 in 9.0 mi North 5.8 mph - N/A   Clear
5:35 PM 21.2 °F 13.6 °F 17.6 °F 86% 29.95 in 10.0 mi North 5.8 mph - N/A   Clear
5:55 PM 19.4 °F 11.5 °F 15.8 °F 86% 29.95 in 8.0 mi North 5.8 mph - N/A   Clear
6:15 PM 19.4 °F 11.5 °F 15.8 °F 86% 29.96 in 8.0 mi North 5.8 mph - N/A   Clear
6:35 PM 17.6 °F 8.2 °F 15.8 °F 93% 29.96 in 8.0 mi North 6.9 mph - N/A   Clear
6:55 PM 19.4 °F 6.0 °F 15.8 °F 86% 29.96 in 7.0 mi North 13.8 mph - N/A   Clear
7:15 PM 17.6 °F 5.0 °F 14.0 °F 86% 29.97 in 9.0 mi North 11.5 mph 18.4 mph N/A   Clear
7:35 PM 15.8 °F 2.1 °F 12.2 °F 86% 29.97 in 9.0 mi North 12.7 mph - N/A   Clear
7:55 PM 15.8 °F 2.1 °F 12.2 °F 86% 29.98 in 9.0 mi North 12.7 mph - N/A   Clear
8:15 PM 15.8 °F 1.4 °F 12.2 °F 86% 29.99 in 10.0 mi North 13.8 mph - N/A   Clear
8:35 PM 15.8 °F 1.4 °F 10.4 °F 79% 29.99 in 10.0 mi North 13.8 mph - N/A   Clear
8:55 PM 14.0 °F -0.2 °F 10.4 °F 86% 29.98 in 9.0 mi North 12.7 mph - N/A   Clear
9:15 PM 14.0 °F -0.2 °F 10.4 °F 86% 29.99 in 9.0 mi North 12.7 mph - N/A   Clear
9:35 PM 14.0 °F -0.2 °F 10.4 °F 86% 29.99 in 9.0 mi North 12.7 mph - N/A   Clear
9:55 PM 12.2 °F -1.8 °F 8.6 °F 85% 29.99 in 8.0 mi North 11.5 mph - N/A   Clear
10:15 PM 12.2 °F -2.5 °F 8.6 °F 85% 30.00 in 8.0 mi North 12.7 mph - N/A   Clear
10:35 PM 12.2 °F -3.1 °F 8.6 °F 85% 29.99 in 8.0 mi North 13.8 mph - N/A   Clear
10:55 PM 12.2 °F -3.7 °F 8.6 °F 85% 29.99 in 8.0 mi North 15.0 mph - N/A   Clear
11:15 PM 12.2 °F -3.1 °F 8.6 °F 85% 29.99 in 8.0 mi North 13.8 mph - N/A   Clear
11:35 PM 12.2 °F -2.5 °F 8.6 °F 85% 30.00 in 9.0 mi North 12.7 mph - N/A   Clear
11:55 PM 12.2 °F -1.0 °F 6.8 °F 79% 29.99 in 9.0 mi North 10.4 mph - N/A   Clear